Location: The Peaks
(40.6167°S, 175.5000°E)
Time: 05:40:19
(UTC+00:00)

Daily predictions for brighter satellites

Satellite Brightness Start Highest point End
(mag) Time Altitude Azimuth Time Altitude Azimuth Time Altitude Azimuth
CZ-2D R/B 3.6 06:40:51 10° S 06:44:47 76° WSW 06:48:39 10° NNW
SJ-11-01 4.4 06:40:56 10° SSE 06:45:37 57° E 06:50:13 10° N
Cosmos 1782 Rocket 4.2 06:41:59 10° S 06:46:05 35° ESE 06:50:07 10° NE
Cosmos 405 Rocket 3.1 06:42:43 10° NNW 06:46:32 70° W 06:50:20 10° S
NOAA 6 4.1 06:41:47 10° SSE 06:46:53 56° E 06:51:56 10° N
ADEOS 3.7 06:41:56 10° SSE 06:47:16 89° ENE 06:52:31 10° NNW
COSMOS 2428 3.7 06:43:02 10° S 06:48:00 29° SE 06:52:55 10° ENE
Alouette 2 Rocket 4.3 06:44:12 10° NNE 06:48:58 35° E 06:52:37 10° SSE
YAOGAN 1 4.3 06:50:06 10° ESE 06:52:17 13° E 06:54:26 10° ENE
SJ 16-02 2.1 06:50:03 10° S 06:54:09 34° ESE 06:58:11 10° NE
CZ-4C R/B 4.3 06:50:55 10° NE 06:55:46 17° ENE 07:00:19 10° ESE
Cosmos 2333 4.3 06:52:28 10° SSW 06:58:16 72° ESE 07:04:02 10° NNE
GEOS 3 Rocket 3.7 06:56:54 10° NE 07:02:13 72° SE 07:07:32 10° SSW
Cosmos 1707 2.9 06:58:35 10° N 07:02:22 53° E 07:06:13 10° SSE
Cosmos 1842 3.5 06:58:45 10° NNW 07:02:40 75° W 07:06:40 10° S
ARGOS 3.3 06:58:14 10° SSE 07:03:43 83° WSW 07:09:06 10° NNW
CZ-4B R/B 4.2 07:01:24 10° SE 07:05:34 22° E 07:09:39 10° NE
X-37B 0.3 07:03:02 10° WSW 07:05:55 79° NNW 07:08:17 14° ENE
Cosmos 2322 Rocket 3.7 07:01:06 10° SW 07:06:21 39° WNW 07:11:34 10° N
Cosmos 2195 Rocket 4.5 07:01:23 10° S 07:07:33 68° E 07:13:40 10° NNE
Cosmos 1428 Rocket 4.5 07:01:43 10° S 07:07:53 66° E 07:13:58 10° NNE
USA 290 3.3 07:05:04 10° SSW 07:08:17 49° WNW 07:11:27 10° N
CZ-4B R/B 3.5 07:04:16 10° S 07:08:28 67° WSW 07:12:48 10° NNW
Cosmos 1626 2.6 07:05:27 10° NNE 07:08:51 37° E 07:12:19 10° SSE
Cosmos 2279 Rocket 4.5 07:04:49 10° NNE 07:10:32 38° E 07:16:17 10° SSE
Cosmos 1503 Rocket 4.0 07:08:22 10° SSW 07:13:43 68° ESE 07:18:56 10° NNE
Meteor 2-15 Rocket 4.4 07:08:46 10° N 07:14:54 72° E 07:21:07 10° SSE
Okean 3 4.2 07:10:59 10° NNW 07:15:08 57° W 07:19:19 10° S
Cosmos 1634 Rocket 4.0 07:09:16 10° N 07:15:29 67° E 07:21:49 10° SSE
JB-3 4.2 07:12:00 10° NNE 07:15:51 86° E 07:19:45 10° S
Lacrosse 5 rocket 0.9 07:13:32 10° NW 07:17:09 80° NE 07:20:55 10° SE
H-2A R/B 3.3 07:19:38 16° ENE 07:22:10 26° ESE 07:25:56 10° SSE
Genesis I 3.8 07:18:34 10° NW 07:22:10 55° SW 07:25:47 10° SSE
Cosmos 2242 Rocket 3.9 07:17:42 10° NNW 07:22:11 74° W 07:26:47 10° S
Aureole 3 Rocket 4.4 07:25:26 16° ESE 07:25:26 16° ESE 07:26:58 10° SE
Cosmos 2026 Rocket 4.0 07:18:53 10° S 07:25:17 79° E 07:31:29 10° N
CZ-4B DEB 4.2 07:21:00 10° SSE 07:26:34 69° ENE 07:32:01 10° N
Cosmos 1758 3.6 07:22:43 10° S 07:26:38 45° E 07:30:06 12° NNE
COSMOS 2455 3.6 07:21:25 10° SW 07:27:18 53° WNW 07:33:07 10° N
Cosmos 2322 3.7 07:21:52 10° SSW 07:27:40 76° ESE 07:33:21 10° NNE
Cosmos 1908 3.8 07:24:10 10° S 07:27:50 37° ESE 07:30:10 19° NE
PSLV R/B 3.8 07:26:54 10° SSE 07:30:57 64° ENE 07:34:52 10° N
Sich 1 Rocket 4.1 07:31:35 10° S 07:35:52 38° ESE 07:38:11 22° NE
USA 276 3.6 07:34:10 10° W 07:36:56 32° SSW 07:39:22 12° SE
FALCON 9 DEB 2.8 07:34:14 10° NW 07:37:25 84° NE 07:39:25 21° SE
Cosmos 1607 4.2 07:31:48 10° SSW 07:38:05 54° SE 07:42:06 22° ENE
Cosmos 1674 Rocket 4.4 07:38:37 25° ENE 07:39:59 29° E 07:43:54 10° SSE
ATLAS 3B R/B 3.1 07:35:36 10° N 07:42:35 44° ENE 07:49:15 10° SE
Cosmos 1470 4.3 07:41:35 10° SSW 07:45:21 39° W 07:49:02 10° NNW
SL-14 R/B 3.8 07:45:43 30° NE 07:46:56 38° E 07:50:45 10° SSE
Cosmos 2227 Rocket 3.3 07:49:16 24° E 07:49:16 24° E 07:52:43 10° SE
ATLAS 5 CENTAUR R/B 2.7 07:46:37 10° SSW 07:51:50 35° SE 07:53:25 28° E
CZ-4 R/B 1.7 07:48:55 10° SSE 07:52:45 41° E 07:53:19 38° ENE
Cosmos 2221 Rocket 3.6 07:55:12 10° N 07:59:45 67° E 08:04:21 10° SSE
Cosmos 2333 Rocket 3.7 07:54:53 10° SW 08:00:05 36° WNW 08:05:17 10° N
Cosmos 1980 4.1 07:56:26 10° S 08:01:53 43° ESE 08:03:27 35° E
Cosmos 2297 Rocket 2.2 07:56:37 10° N 08:02:06 53° ENE 08:07:38 10° SSE
Cosmos 2219 Rocket 3.1 07:59:03 10° SW 08:04:29 47° WNW 08:09:52 10° N
Cosmos 1674 4.3 08:01:42 10° NW 08:05:08 35° WSW 08:08:36 10° S
DELTA 2 R/B (1) 4.5 08:02:46 10° W 08:07:55 38° NNW 08:10:03 28° NNE
Cosmos 1953 2.7 08:04:23 10° S 08:08:02 46° ESE 08:08:02 46° ESE
Cosmos 1378 Rocket 3.5 08:08:26 51° NE 08:09:11 59° E 08:13:30 10° SSE
Okean O Rocket 1.4 08:08:35 10° SSE 08:13:02 80° ENE 08:16:13 18° N
HJ-1C 3.7 08:10:10 10° S 08:13:20 61° WSW 08:14:06 44° NW
Cosmos 1763 Rocket 3.5 08:14:58 34° NNE 08:17:02 55° ENE 08:22:15 10° SSE
Cosmos 1655 Rocket 4.1 08:13:42 10° S 08:20:05 58° E 08:22:00 43° NE
SL-8 R/B 3.9 08:15:50 10° WNW 08:20:41 71° SSW 08:22:31 38° SE
CRYOSAT 2 4.2 08:16:59 10° S 08:21:58 81° E 08:23:47 40° N
Cosmos 2237 Rocket 2.3 08:17:00 10° SSW 08:22:42 59° ESE 08:23:38 52° ENE
Okean 1 Rocket 3.8 08:20:20 10° S 08:23:32 39° SE 08:23:32 39° SE
YAOGAN 1 3.3 08:24:23 10° S 08:28:40 53° WSW 08:32:53 10° NNW
Cosmos 1300 3.8 08:27:01 10° S 08:29:28 36° S 08:29:28 36° S
Okean 2 Rocket 3.4 08:27:13 10° SSW 08:31:39 63° W 08:32:46 46° NNW
Cosmos 724 4.2 08:26:02 10° SSW 08:32:03 70° ESE 08:32:57 60° ENE
COSMOS 2428 3.7 08:26:59 10° SW 08:32:21 42° WNW 08:36:02 19° NNW
SJ 16-02 3.7 08:29:04 10° SW 08:32:25 21° W 08:35:43 10° NW
Cosmos 2219 4.4 08:42:08 29° SE 08:42:08 29° SE 08:44:55 10° SSE
Cosmos 2266 Rocket 3.9 08:35:05 10° S 08:41:24 89° W 08:43:24 47° N
CZ-4C R/B 2.9 08:35:07 10° NNW 08:43:43 76° ENE 08:51:05 10° SE
NOSS 0 Rocket 4.3 08:39:51 10° SSW 08:46:00 59° WNW 08:48:05 40° NNW
CZ-4B R/B 4.2 08:41:11 10° S 08:46:19 45° WSW 08:51:21 10° NW
Feng Yun 1-1 Rocket 4.4 08:40:58 10° SSE 08:46:57 78° WSW 08:51:30 17° NNW
Meteor 2-17 Rocket 4.2 08:41:46 10° S 08:47:55 79° E 08:48:24 73° NE
Cosmos 1271 Rocket 4.4 08:48:58 10° SSW 08:50:59 29° SSW 08:50:59 29° SSW
Lacrosse 5 rocket 3.8 08:54:10 10° WSW 08:56:36 16° SSW 08:58:02 14° S
H-2A R/B 3.8 08:56:40 26° NW 08:57:55 31° W 09:01:59 10° SW
SL-16 R/B 3.2 08:57:35 10° S 09:01:43 36° SSE 09:01:43 36° SSE
Meteor 2-10 Rocket 4.1 09:02:44 10° SSW 09:07:56 55° W 09:08:09 55° WNW
CZ-4 R/B 4.2 09:24:54 10° SSW 09:27:20 16° WSW 09:29:16 12° W
Cosmos 2227 Rocket 3.1 09:30:40 40° W 09:31:51 45° WSW 09:37:21 10° SSE
ATLAS 3B R/B 3.8 09:26:18 10° WNW 09:33:18 44° SW 09:39:59 10° SSE
BREEZE-M DEB (TANK) 4.2 09:19:13 10° W 09:35:57 62° SSW 09:36:46 57° SSE
ATLAS 5 CENTAUR R/B 3.7 09:31:40 10° SW 09:34:51 27° W 09:34:51 27° W
Cosmos 2297 Rocket 4.3 09:41:57 10° WNW 09:46:28 24° SW 09:51:01 10° S
Cosmos 2237 Rocket 4.4 10:02:18 10° SW 10:05:30 19° W 10:05:30 19° W
NOSS 3-1 (C) 4.5 10:03:58 10° NW 10:13:02 63° SW 10:20:58 10° SSE
CZ-4C R/B 4.4 10:25:52 10° WNW 10:32:54 31° SW 10:39:00 10° SSE
